Hourly Weather Roundup
Issued by NWS Central Illinois

Home | Current Version | Previous Version | Text Only | Print | Product List | Glossary On
Versions: 1 2 3 4 5 6 7 8 9 10 11 12 13 14 15 16 17 18 19 20 21 22 23 24 25 26 27 28 29 30 31 32 33 34 35 36 37 38 39 40 41 42 43 44 45 46 47 48 49 50
000
NZUS43 KILX 250510
HWRILX

AREA WEATHER ROUNDUP
NATIONAL WEATHER SERVICE, LINCOLN IL
1100 PM CST SAT JAN 24 2015


CITY           SKY/WX    TMP DP  RH WIND       PRES   REMARKS
BLOOMINGTON    MOCLDY    35  33  92 S8        29.67F WCI  28
CHAMPAIGN      CLOUDY    35  32  88 S8        29.68F WCI  29
DECATUR        CLOUDY    38  33  82 CALM      29.68F
FLORA          MOCLDY    37  32  82 S8        29.74F WCI  31
GALESBURG      CLOUDY    36  32  87 S3        29.61F
JACKSONVILLE   CLOUDY    45  33  62 S8        29.65F
LACON          CLOUDY    36  32  84 SE3       29.64S
LAWRENCEVILLE  MOCLDY    36  31  82 S6        29.76F WCI  31
LITCHFIELD     CLOUDY    37  31  79 S7        29.69F WCI  31
$$


CITY           SKY/WX    TMP DP  RH WIND       PRES   REMARKS
LINCOLN        CLOUDY    39  34  82 S3        29.67S
MACOMB         CLOUDY    39  33  79 S6        29.64F WCI  35
MATTOON        CLOUDY    39  31  72 S9        29.69F WCI  33
MT CARMEL AP   MOCLDY    41  32  70 CALM      29.76F
OLNEY-NOBLE AP CLOUDY    37  32  81 CALM      29.75F
PARIS          PTCLDY    36  33  90 S7        29.72F WCI  31
PEORIA         CLOUDY    38  32  79 S5        29.65S WCI  34
PONTIAC        CLOUDY    34  33  96 SE5       29.66F WCI  30
RANTOUL        CLOUDY    38  34  85 S6        29.68S WCI  33
ROBINSON       PTCLDY    38  32  79 SW7       29.76F WCI  33
SPRINGFIELD    CLOUDY    44  32  62 SW7       29.66F
TAYLORVILLE    CLOUDY    37  32  81 S8        29.68F WCI  31
$$

...REGIONAL REPORTS...


CITY           SKY/WX    TMP DP  RH WIND       PRES   REMARKS
CHICAGO O`HARE CLOUDY    32  29  88 N5        29.67S WCI  27
KANKAKEE       MOCLDY    32  31  97 CALM      29.68S
MOLINE         CLOUDY    33  30  88 E6        29.60F WCI  28
MOUNT VERNON   CLOUDY    37  30  75 S6        29.76F WCI  33
PITTSFIELD     CLOUDY    47  33  58 SW6       29.66S
QUINCY         CLOUDY    42  32  67 SW8       29.63F
ROCKFORD       CLOUDY    32  29  88 E10       29.67S WCI  24
$$


CITY           SKY/WX    TMP DP  RH WIND       PRES   REMARKS
BURLINGTON     CLOUDY    39  33  79 S5        29.60F
CEDAR RAPIDS   MOCLDY    34  31  88 E3        29.57F
DES MOINES     LGT RAIN  43  36  76 SW3       29.57F
KIRKSVILLE     CLOUDY    46  30  53 SW7       29.62F
OTTUMWA        LGT RAIN  42  31  64 S7        29.58F
ST LOUIS       CLOUDY    51  31  46 SW12      29.70F
$$


CITY           SKY/WX    TMP DP  RH WIND       PRES   REMARKS
TERRE HAUTE    PTCLDY    35  30  82 S6        29.74F WCI  30
EVANSVILLE     MOCLDY    41  31  67 S5        29.80F
INDIANAPOLIS   MOCLDY    31  29  92 SW6       29.73S WCI  25
LAFAYETTE      CLOUDY    34  32  92 S5        29.70F WCI  30
MADISON        MOCLDY    31  28  89 SE3       29.65F
MILWAUKEE      CLOUDY    34  29  82 N3        29.68S
$$





USA.gov is the U.S. government's official web portal to all federal, state and local government web resources and services.